Index of /20260429/WXO-DD/model_rdps/10km/00/008
Name Last modified Size Description
Parent Directory -
20260429T00Z_MSC_RDPS_AbsoluteVorticity_IsbL-0250_RLatLon0.09_PT008H.grib2 2026-04-29 02:41 636K
20260429T00Z_MSC_RDPS_AbsoluteVorticity_IsbL-0500_RLatLon0.09_PT008H.grib2 2026-04-29 02:41 573K
20260429T00Z_MSC_RDPS_AbsoluteVorticity_IsbL-0700_RLatLon0.09_PT008H.grib2 2026-04-29 02:41 616K
20260429T00Z_MSC_RDPS_AbsoluteVorticity_IsbL-0850_RLatLon0.09_PT008H.grib2 2026-04-29 02:41 773K
20260429T00Z_MSC_RDPS_AirTemp_AGL-120m_RLatLon0.09_PT008H.grib2 2026-04-29 02:41 388K
20260429T00Z_MSC_RDPS_AirTemp_AGL-2m_RLatLon0.09_PT008H.grib2 2026-04-29 02:41 622K
20260429T00Z_MSC_RDPS_AirTemp_AGL-40m_RLatLon0.09_PT008H.grib2 2026-04-29 02:41 404K
20260429T00Z_MSC_RDPS_AirTemp_AGL-80m_RLatLon0.09_PT008H.grib2 2026-04-29 02:41 395K
20260429T00Z_MSC_RDPS_AirTemp_IsbL-0001_RLatLon0.09_PT008H.grib2 2026-04-29 02:41 250K
20260429T00Z_MSC_RDPS_AirTemp_IsbL-0005_RLatLon0.09_PT008H.grib2 2026-04-29 02:41 288K
20260429T00Z_MSC_RDPS_AirTemp_IsbL-0010_RLatLon0.09_PT008H.grib2 2026-04-29 02:41 297K
20260429T00Z_MSC_RDPS_AirTemp_IsbL-0020_RLatLon0.09_PT008H.grib2 2026-04-29 02:41 310K
20260429T00Z_MSC_RDPS_AirTemp_IsbL-0030_RLatLon0.09_PT008H.grib2 2026-04-29 02:41 329K
20260429T00Z_MSC_RDPS_AirTemp_IsbL-0050_RLatLon0.09_PT008H.grib2 2026-04-29 02:41 311K
20260429T00Z_MSC_RDPS_AirTemp_IsbL-0100_RLatLon0.09_PT008H.grib2 2026-04-29 02:41 427K
20260429T00Z_MSC_RDPS_AirTemp_IsbL-0150_RLatLon0.09_PT008H.grib2 2026-04-29 02:41 430K
20260429T00Z_MSC_RDPS_AirTemp_IsbL-0175_RLatLon0.09_PT008H.grib2 2026-04-29 02:41 419K
20260429T00Z_MSC_RDPS_AirTemp_IsbL-0200_RLatLon0.09_PT008H.grib2 2026-04-29 02:41 423K
20260429T00Z_MSC_RDPS_AirTemp_IsbL-0225_RLatLon0.09_PT008H.grib2 2026-04-29 02:41 426K
20260429T00Z_MSC_RDPS_AirTemp_IsbL-0250_RLatLon0.09_PT008H.grib2 2026-04-29 02:41 436K
20260429T00Z_MSC_RDPS_AirTemp_IsbL-0275_RLatLon0.09_PT008H.grib2 2026-04-29 02:41 415K
20260429T00Z_MSC_RDPS_AirTemp_IsbL-0300_RLatLon0.09_PT008H.grib2 2026-04-29 02:41 421K
20260429T00Z_MSC_RDPS_AirTemp_IsbL-0350_RLatLon0.09_PT008H.grib2 2026-04-29 02:41 434K
20260429T00Z_MSC_RDPS_AirTemp_IsbL-0400_RLatLon0.09_PT008H.grib2 2026-04-29 02:41 434K
20260429T00Z_MSC_RDPS_AirTemp_IsbL-0450_RLatLon0.09_PT008H.grib2 2026-04-29 02:41 439K
20260429T00Z_MSC_RDPS_AirTemp_IsbL-0500_RLatLon0.09_PT008H.grib2 2026-04-29 02:41 414K
20260429T00Z_MSC_RDPS_AirTemp_IsbL-0550_RLatLon0.09_PT008H.grib2 2026-04-29 02:41 429K
20260429T00Z_MSC_RDPS_AirTemp_IsbL-0600_RLatLon0.09_PT008H.grib2 2026-04-29 02:41 445K
20260429T00Z_MSC_RDPS_AirTemp_IsbL-0650_RLatLon0.09_PT008H.grib2 2026-04-29 02:41 460K
20260429T00Z_MSC_RDPS_AirTemp_IsbL-0700_RLatLon0.09_PT008H.grib2 2026-04-29 02:41 376K
20260429T00Z_MSC_RDPS_AirTemp_IsbL-0750_RLatLon0.09_PT008H.grib2 2026-04-29 02:41 408K
20260429T00Z_MSC_RDPS_AirTemp_IsbL-0800_RLatLon0.09_PT008H.grib2 2026-04-29 02:41 452K
20260429T00Z_MSC_RDPS_AirTemp_IsbL-0850_RLatLon0.09_PT008H.grib2 2026-04-29 02:41 501K
20260429T00Z_MSC_RDPS_AirTemp_IsbL-0875_RLatLon0.09_PT008H.grib2 2026-04-29 02:41 518K
20260429T00Z_MSC_RDPS_AirTemp_IsbL-0900_RLatLon0.09_PT008H.grib2 2026-04-29 02:41 524K
20260429T00Z_MSC_RDPS_AirTemp_IsbL-0925_RLatLon0.09_PT008H.grib2 2026-04-29 02:41 519K
20260429T00Z_MSC_RDPS_AirTemp_IsbL-0950_RLatLon0.09_PT008H.grib2 2026-04-29 02:41 522K
20260429T00Z_MSC_RDPS_AirTemp_IsbL-0970_RLatLon0.09_PT008H.grib2 2026-04-29 02:41 513K
20260429T00Z_MSC_RDPS_AirTemp_IsbL-0985_RLatLon0.09_PT008H.grib2 2026-04-29 02:41 498K
20260429T00Z_MSC_RDPS_AirTemp_IsbL-1000_RLatLon0.09_PT008H.grib2 2026-04-29 02:41 480K
20260429T00Z_MSC_RDPS_AirTemp_IsbL-1015_RLatLon0.09_PT008H.grib2 2026-04-29 02:41 480K
20260429T00Z_MSC_RDPS_Albedo_Sfc_RLatLon0.09_PT008H.grib2 2026-04-29 02:41 162K
20260429T00Z_MSC_RDPS_CAPE_Sfc_RLatLon0.09_PT008H.grib2 2026-04-29 02:41 1.6M
20260429T00Z_MSC_RDPS_CIN_Sfc_RLatLon0.09_PT008H.grib2 2026-04-29 02:41 1.1M
20260429T00Z_MSC_RDPS_CloudWater_EAtm_RLatLon0.09_PT008H.grib2 2026-04-29 02:41 217K
20260429T00Z_MSC_RDPS_ConvectivePrecip-Accum_Sfc_RLatLon0.09_PT008H.grib2 2026-04-29 02:41 525K
20260429T00Z_MSC_RDPS_DewPointDepression_AGL-2m_RLatLon0.09_PT008H.grib2 2026-04-29 02:41 391K
20260429T00Z_MSC_RDPS_DewPointDepression_IsbL-0001_RLatLon0.09_PT008H.grib2 2026-04-29 02:41 193
20260429T00Z_MSC_RDPS_DewPointDepression_IsbL-0005_RLatLon0.09_PT008H.grib2 2026-04-29 02:41 193
20260429T00Z_MSC_RDPS_DewPointDepression_IsbL-0010_RLatLon0.09_PT008H.grib2 2026-04-29 02:41 193
20260429T00Z_MSC_RDPS_DewPointDepression_IsbL-0020_RLatLon0.09_PT008H.grib2 2026-04-29 02:41 193
20260429T00Z_MSC_RDPS_DewPointDepression_IsbL-0030_RLatLon0.09_PT008H.grib2 2026-04-29 02:41 193
20260429T00Z_MSC_RDPS_DewPointDepression_IsbL-0050_RLatLon0.09_PT008H.grib2 2026-04-29 02:41 83K
20260429T00Z_MSC_RDPS_DewPointDepression_IsbL-0100_RLatLon0.09_PT008H.grib2 2026-04-29 02:41 133K
20260429T00Z_MSC_RDPS_DewPointDepression_IsbL-0150_RLatLon0.09_PT008H.grib2 2026-04-29 02:41 155K
20260429T00Z_MSC_RDPS_DewPointDepression_IsbL-0175_RLatLon0.09_PT008H.grib2 2026-04-29 02:41 185K
20260429T00Z_MSC_RDPS_DewPointDepression_IsbL-0200_RLatLon0.09_PT008H.grib2 2026-04-29 02:41 222K
20260429T00Z_MSC_RDPS_DewPointDepression_IsbL-0225_RLatLon0.09_PT008H.grib2 2026-04-29 02:41 268K
20260429T00Z_MSC_RDPS_DewPointDepression_IsbL-0250_RLatLon0.09_PT008H.grib2 2026-04-29 02:41 305K
20260429T00Z_MSC_RDPS_DewPointDepression_IsbL-0275_RLatLon0.09_PT008H.grib2 2026-04-29 02:41 312K
20260429T00Z_MSC_RDPS_DewPointDepression_IsbL-0300_RLatLon0.09_PT008H.grib2 2026-04-29 02:41 331K
20260429T00Z_MSC_RDPS_DewPointDepression_IsbL-0350_RLatLon0.09_PT008H.grib2 2026-04-29 02:41 337K
20260429T00Z_MSC_RDPS_DewPointDepression_IsbL-0400_RLatLon0.09_PT008H.grib2 2026-04-29 02:41 344K
20260429T00Z_MSC_RDPS_DewPointDepression_IsbL-0450_RLatLon0.09_PT008H.grib2 2026-04-29 02:41 349K
20260429T00Z_MSC_RDPS_DewPointDepression_IsbL-0500_RLatLon0.09_PT008H.grib2 2026-04-29 02:41 354K
20260429T00Z_MSC_RDPS_DewPointDepression_IsbL-0550_RLatLon0.09_PT008H.grib2 2026-04-29 02:41 363K
20260429T00Z_MSC_RDPS_DewPointDepression_IsbL-0600_RLatLon0.09_PT008H.grib2 2026-04-29 02:41 371K
20260429T00Z_MSC_RDPS_DewPointDepression_IsbL-0650_RLatLon0.09_PT008H.grib2 2026-04-29 02:41 374K
20260429T00Z_MSC_RDPS_DewPointDepression_IsbL-0700_RLatLon0.09_PT008H.grib2 2026-04-29 02:41 386K
20260429T00Z_MSC_RDPS_DewPointDepression_IsbL-0750_RLatLon0.09_PT008H.grib2 2026-04-29 02:41 405K
20260429T00Z_MSC_RDPS_DewPointDepression_IsbL-0800_RLatLon0.09_PT008H.grib2 2026-04-29 02:41 436K
20260429T00Z_MSC_RDPS_DewPointDepression_IsbL-0850_RLatLon0.09_PT008H.grib2 2026-04-29 02:41 462K
20260429T00Z_MSC_RDPS_DewPointDepression_IsbL-0875_RLatLon0.09_PT008H.grib2 2026-04-29 02:41 462K
20260429T00Z_MSC_RDPS_DewPointDepression_IsbL-0900_RLatLon0.09_PT008H.grib2 2026-04-29 02:41 454K
20260429T00Z_MSC_RDPS_DewPointDepression_IsbL-0925_RLatLon0.09_PT008H.grib2 2026-04-29 02:41 446K
20260429T00Z_MSC_RDPS_DewPointDepression_IsbL-0950_RLatLon0.09_PT008H.grib2 2026-04-29 02:41 443K
20260429T00Z_MSC_RDPS_DewPointDepression_IsbL-0970_RLatLon0.09_PT008H.grib2 2026-04-29 02:41 433K
20260429T00Z_MSC_RDPS_DewPointDepression_IsbL-0985_RLatLon0.09_PT008H.grib2 2026-04-29 02:41 424K
20260429T00Z_MSC_RDPS_DewPointDepression_IsbL-1000_RLatLon0.09_PT008H.grib2 2026-04-29 02:41 418K
20260429T00Z_MSC_RDPS_DewPointDepression_IsbL-1015_RLatLon0.09_PT008H.grib2 2026-04-29 02:41 410K
20260429T00Z_MSC_RDPS_DewPoint_AGL-2m_RLatLon0.09_PT008H.grib2 2026-04-29 02:41 305K
20260429T00Z_MSC_RDPS_DownwardLongwaveRadiationFlux-Accum_Sfc_RLatLon0.09_PT008H.grib2 2026-04-29 02:41 538K
20260429T00Z_MSC_RDPS_DownwardShortwaveRadiationFlux-Accum_NTAtm_RLatLon0.09_PT008H.grib2 2026-04-29 02:41 89K
20260429T00Z_MSC_RDPS_DownwardShortwaveRadiationFlux-Accum_Sfc_RLatLon0.09_PT008H.grib2 2026-04-29 02:41 269K
20260429T00Z_MSC_RDPS_FreezingRain-Accum1h_Sfc_RLatLon0.09_PT008H.grib2 2026-04-29 02:41 28K
20260429T00Z_MSC_RDPS_FreezingRain-Accum_Sfc_RLatLon0.09_PT008H.grib2 2026-04-29 02:41 76K
20260429T00Z_MSC_RDPS_GeopotentialHeight_IsbL-0001_RLatLon0.09_PT008H.grib2 2026-04-29 02:41 239K
20260429T00Z_MSC_RDPS_GeopotentialHeight_IsbL-0005_RLatLon0.09_PT008H.grib2 2026-04-29 02:41 338K
20260429T00Z_MSC_RDPS_GeopotentialHeight_IsbL-0010_RLatLon0.09_PT008H.grib2 2026-04-29 02:41 306K
20260429T00Z_MSC_RDPS_GeopotentialHeight_IsbL-0020_RLatLon0.09_PT008H.grib2 2026-04-29 02:41 305K
20260429T00Z_MSC_RDPS_GeopotentialHeight_IsbL-0030_RLatLon0.09_PT008H.grib2 2026-04-29 02:41 306K
20260429T00Z_MSC_RDPS_GeopotentialHeight_IsbL-0050_RLatLon0.09_PT008H.grib2 2026-04-29 02:41 308K
20260429T00Z_MSC_RDPS_GeopotentialHeight_IsbL-0100_RLatLon0.09_PT008H.grib2 2026-04-29 02:41 289K
20260429T00Z_MSC_RDPS_GeopotentialHeight_IsbL-0150_RLatLon0.09_PT008H.grib2 2026-04-29 02:41 231K
20260429T00Z_MSC_RDPS_GeopotentialHeight_IsbL-0175_RLatLon0.09_PT008H.grib2 2026-04-29 02:41 266K
20260429T00Z_MSC_RDPS_GeopotentialHeight_IsbL-0200_RLatLon0.09_PT008H.grib2 2026-04-29 02:41 269K
20260429T00Z_MSC_RDPS_GeopotentialHeight_IsbL-0225_RLatLon0.09_PT008H.grib2 2026-04-29 02:41 269K
20260429T00Z_MSC_RDPS_GeopotentialHeight_IsbL-0250_RLatLon0.09_PT008H.grib2 2026-04-29 02:41 269K
20260429T00Z_MSC_RDPS_GeopotentialHeight_IsbL-0275_RLatLon0.09_PT008H.grib2 2026-04-29 02:41 268K
20260429T00Z_MSC_RDPS_GeopotentialHeight_IsbL-0300_RLatLon0.09_PT008H.grib2 2026-04-29 02:41 268K
20260429T00Z_MSC_RDPS_GeopotentialHeight_IsbL-0350_RLatLon0.09_PT008H.grib2 2026-04-29 02:41 233K
20260429T00Z_MSC_RDPS_GeopotentialHeight_IsbL-0400_RLatLon0.09_PT008H.grib2 2026-04-29 02:41 230K
20260429T00Z_MSC_RDPS_GeopotentialHeight_IsbL-0450_RLatLon0.09_PT008H.grib2 2026-04-29 02:41 299K
20260429T00Z_MSC_RDPS_GeopotentialHeight_IsbL-0500_RLatLon0.09_PT008H.grib2 2026-04-29 02:41 294K
20260429T00Z_MSC_RDPS_GeopotentialHeight_IsbL-0550_RLatLon0.09_PT008H.grib2 2026-04-29 02:41 290K
20260429T00Z_MSC_RDPS_GeopotentialHeight_IsbL-0600_RLatLon0.09_PT008H.grib2 2026-04-29 02:41 287K
20260429T00Z_MSC_RDPS_GeopotentialHeight_IsbL-0650_RLatLon0.09_PT008H.grib2 2026-04-29 02:41 255K
20260429T00Z_MSC_RDPS_GeopotentialHeight_IsbL-0700_RLatLon0.09_PT008H.grib2 2026-04-29 02:41 254K
20260429T00Z_MSC_RDPS_GeopotentialHeight_IsbL-0750_RLatLon0.09_PT008H.grib2 2026-04-29 02:41 337K
20260429T00Z_MSC_RDPS_GeopotentialHeight_IsbL-0800_RLatLon0.09_PT008H.grib2 2026-04-29 02:41 344K
20260429T00Z_MSC_RDPS_GeopotentialHeight_IsbL-0850_RLatLon0.09_PT008H.grib2 2026-04-29 02:41 355K
20260429T00Z_MSC_RDPS_GeopotentialHeight_IsbL-0875_RLatLon0.09_PT008H.grib2 2026-04-29 02:41 358K
20260429T00Z_MSC_RDPS_GeopotentialHeight_IsbL-0900_RLatLon0.09_PT008H.grib2 2026-04-29 02:41 361K
20260429T00Z_MSC_RDPS_GeopotentialHeight_IsbL-0925_RLatLon0.09_PT008H.grib2 2026-04-29 02:41 366K
20260429T00Z_MSC_RDPS_GeopotentialHeight_IsbL-0950_RLatLon0.09_PT008H.grib2 2026-04-29 02:41 368K
20260429T00Z_MSC_RDPS_GeopotentialHeight_IsbL-0970_RLatLon0.09_PT008H.grib2 2026-04-29 02:41 375K
20260429T00Z_MSC_RDPS_GeopotentialHeight_IsbL-0985_RLatLon0.09_PT008H.grib2 2026-04-29 02:41 383K
20260429T00Z_MSC_RDPS_GeopotentialHeight_IsbL-1000_RLatLon0.09_PT008H.grib2 2026-04-29 02:41 393K
20260429T00Z_MSC_RDPS_GeopotentialHeight_IsbL-1015_RLatLon0.09_PT008H.grib2 2026-04-29 02:41 407K
20260429T00Z_MSC_RDPS_Humidex_Sfc_RLatLon0.09_PT008H.grib2 2026-04-29 02:41 2.4M
20260429T00Z_MSC_RDPS_IcePellets-Accum1h_Sfc_RLatLon0.09_PT008H.grib2 2026-04-29 02:41 5.5K
20260429T00Z_MSC_RDPS_IcePellets-Accum_Sfc_RLatLon0.09_PT008H.grib2 2026-04-29 02:41 9.8K
20260429T00Z_MSC_RDPS_KIndex_Sfc_RLatLon0.09_PT008H.grib2 2026-04-29 02:41 2.4M
20260429T00Z_MSC_RDPS_LatentHeatNetFlux_Sfc_RLatLon0.09_PT008H.grib2 2026-04-29 02:41 401K
20260429T00Z_MSC_RDPS_LiftedIndex-MU-VT_IsbL-0500_RLatLon0.09_PT008H.grib2 2026-04-29 02:41 2.4M
20260429T00Z_MSC_RDPS_NetLongwaveRadiationFlux-Accum_Sfc_RLatLon0.09_PT008H.grib2 2026-04-29 02:41 534K
20260429T00Z_MSC_RDPS_NetShortwaveRadiationFlux-Accum_Sfc_RLatLon0.09_PT008H.grib2 2026-04-29 02:41 336K
20260429T00Z_MSC_RDPS_PlanetaryBoundaryLayerHeight_Sfc_RLatLon0.09_PT008H.grib2 2026-04-29 02:41 1.1M
20260429T00Z_MSC_RDPS_Precip-Accum1h_Sfc_RLatLon0.09_PT008H.grib2 2026-04-29 02:41 1.2M
20260429T00Z_MSC_RDPS_Precip-Accum_Sfc_RLatLon0.09_PT008H.grib2 2026-04-29 02:41 1.5M
20260429T00Z_MSC_RDPS_PrecipRate_Sfc_RLatLon0.09_PT008H.grib2 2026-04-29 02:41 172K
20260429T00Z_MSC_RDPS_PrecipType-Instant_Sfc_RLatLon0.09_PT008H.grib2 2026-04-29 02:41 544K
20260429T00Z_MSC_RDPS_Pressure-Trend3h_Sfc_RLatLon0.09_PT008H.grib2 2026-04-29 02:41 1.2M
20260429T00Z_MSC_RDPS_Pressure_MSL_RLatLon0.09_PT008H.grib2 2026-04-29 02:41 293K
20260429T00Z_MSC_RDPS_Pressure_PVU-1.5_RLatLon0.09_PT008H.grib2 2026-04-29 02:41 2.5M
20260429T00Z_MSC_RDPS_Pressure_PVU-1_RLatLon0.09_PT008H.grib2 2026-04-29 02:41 2.4M
20260429T00Z_MSC_RDPS_Pressure_PVU-2_RLatLon0.09_PT008H.grib2 2026-04-29 02:41 2.4M
20260429T00Z_MSC_RDPS_Pressure_Sfc_RLatLon0.09_PT008H.grib2 2026-04-29 02:41 500K
20260429T00Z_MSC_RDPS_RadiativeTemp_Sfc_RLatLon0.09_PT008H.grib2 2026-04-29 02:41 297K
20260429T00Z_MSC_RDPS_Rain-Accum1h_Sfc_RLatLon0.09_PT008H.grib2 2026-04-29 02:41 509K
20260429T00Z_MSC_RDPS_Rain-Accum_Sfc_RLatLon0.09_PT008H.grib2 2026-04-29 02:41 1.1M
20260429T00Z_MSC_RDPS_RelativeHumidity_AGL-2m_RLatLon0.09_PT008H.grib2 2026-04-29 02:41 1.0M
20260429T00Z_MSC_RDPS_RelativeHumidity_IsbL-0010_RLatLon0.09_PT008H.grib2 2026-04-29 02:41 626K
20260429T00Z_MSC_RDPS_RelativeHumidity_IsbL-0020_RLatLon0.09_PT008H.grib2 2026-04-29 02:41 649K
20260429T00Z_MSC_RDPS_RelativeHumidity_IsbL-0030_RLatLon0.09_PT008H.grib2 2026-04-29 02:41 534K
20260429T00Z_MSC_RDPS_RelativeHumidity_IsbL-0050_RLatLon0.09_PT008H.grib2 2026-04-29 02:41 323K
20260429T00Z_MSC_RDPS_RelativeHumidity_IsbL-0100_RLatLon0.09_PT008H.grib2 2026-04-29 02:41 282K
20260429T00Z_MSC_RDPS_RelativeHumidity_IsbL-0150_RLatLon0.09_PT008H.grib2 2026-04-29 02:41 422K
20260429T00Z_MSC_RDPS_RelativeHumidity_IsbL-0175_RLatLon0.09_PT008H.grib2 2026-04-29 02:41 493K
20260429T00Z_MSC_RDPS_RelativeHumidity_IsbL-0200_RLatLon0.09_PT008H.grib2 2026-04-29 02:41 560K
20260429T00Z_MSC_RDPS_RelativeHumidity_IsbL-0225_RLatLon0.09_PT008H.grib2 2026-04-29 02:41 621K
20260429T00Z_MSC_RDPS_RelativeHumidity_IsbL-0250_RLatLon0.09_PT008H.grib2 2026-04-29 02:41 689K
20260429T00Z_MSC_RDPS_RelativeHumidity_IsbL-0275_RLatLon0.09_PT008H.grib2 2026-04-29 02:41 720K
20260429T00Z_MSC_RDPS_RelativeHumidity_IsbL-0300_RLatLon0.09_PT008H.grib2 2026-04-29 02:41 765K
20260429T00Z_MSC_RDPS_RelativeHumidity_IsbL-0350_RLatLon0.09_PT008H.grib2 2026-04-29 02:41 787K
20260429T00Z_MSC_RDPS_RelativeHumidity_IsbL-0400_RLatLon0.09_PT008H.grib2 2026-04-29 02:41 796K
20260429T00Z_MSC_RDPS_RelativeHumidity_IsbL-0450_RLatLon0.09_PT008H.grib2 2026-04-29 02:41 796K
20260429T00Z_MSC_RDPS_RelativeHumidity_IsbL-0500_RLatLon0.09_PT008H.grib2 2026-04-29 02:41 811K
20260429T00Z_MSC_RDPS_RelativeHumidity_IsbL-0550_RLatLon0.09_PT008H.grib2 2026-04-29 02:41 824K
20260429T00Z_MSC_RDPS_RelativeHumidity_IsbL-0600_RLatLon0.09_PT008H.grib2 2026-04-29 02:41 839K
20260429T00Z_MSC_RDPS_RelativeHumidity_IsbL-0650_RLatLon0.09_PT008H.grib2 2026-04-29 02:41 849K
20260429T00Z_MSC_RDPS_RelativeHumidity_IsbL-0700_RLatLon0.09_PT008H.grib2 2026-04-29 02:41 871K
20260429T00Z_MSC_RDPS_RelativeHumidity_IsbL-0750_RLatLon0.09_PT008H.grib2 2026-04-29 02:41 914K
20260429T00Z_MSC_RDPS_RelativeHumidity_IsbL-0800_RLatLon0.09_PT008H.grib2 2026-04-29 02:41 1.0M
20260429T00Z_MSC_RDPS_RelativeHumidity_IsbL-0850_RLatLon0.09_PT008H.grib2 2026-04-29 02:41 1.0M
20260429T00Z_MSC_RDPS_RelativeHumidity_IsbL-0875_RLatLon0.09_PT008H.grib2 2026-04-29 02:41 1.0M
20260429T00Z_MSC_RDPS_RelativeHumidity_IsbL-0900_RLatLon0.09_PT008H.grib2 2026-04-29 02:41 1.1M
20260429T00Z_MSC_RDPS_RelativeHumidity_IsbL-0925_RLatLon0.09_PT008H.grib2 2026-04-29 02:41 1.1M
20260429T00Z_MSC_RDPS_RelativeHumidity_IsbL-0950_RLatLon0.09_PT008H.grib2 2026-04-29 02:41 1.1M
20260429T00Z_MSC_RDPS_RelativeHumidity_IsbL-0970_RLatLon0.09_PT008H.grib2 2026-04-29 02:41 1.0M
20260429T00Z_MSC_RDPS_RelativeHumidity_IsbL-0985_RLatLon0.09_PT008H.grib2 2026-04-29 02:41 1.0M
20260429T00Z_MSC_RDPS_RelativeHumidity_IsbL-1000_RLatLon0.09_PT008H.grib2 2026-04-29 02:41 1.0M
20260429T00Z_MSC_RDPS_RelativeHumidity_IsbL-1015_RLatLon0.09_PT008H.grib2 2026-04-29 02:41 1.0M
20260429T00Z_MSC_RDPS_Runoff-Accum_Sfc_RLatLon0.09_PT008H.grib2 2026-04-29 02:41 39K
20260429T00Z_MSC_RDPS_SWEATIndex_Sfc_RLatLon0.09_PT008H.grib2 2026-04-29 02:41 2.4M
20260429T00Z_MSC_RDPS_SeeingIndex_EAtm_RLatLon0.09_PT008H.grib2 2026-04-29 02:41 1.0M
20260429T00Z_MSC_RDPS_SensibleHeatNetFlux_Sfc_RLatLon0.09_PT008H.grib2 2026-04-29 02:41 294K
20260429T00Z_MSC_RDPS_ShowalterIndex_IsbL-0500_RLatLon0.09_PT008H.grib2 2026-04-29 02:41 2.6M
20260429T00Z_MSC_RDPS_SkyTransparencyIndex_EAtm_RLatLon0.09_PT008H.grib2 2026-04-29 02:41 696K
20260429T00Z_MSC_RDPS_Snow-Accum1h_Sfc_RLatLon0.09_PT008H.grib2 2026-04-29 02:41 436K
20260429T00Z_MSC_RDPS_Snow-Accum_Sfc_RLatLon0.09_PT008H.grib2 2026-04-29 02:41 628K
20260429T00Z_MSC_RDPS_SnowDensity_Sfc_RLatLon0.09_PT008H.grib2 2026-04-29 02:41 175K
20260429T00Z_MSC_RDPS_SnowDepth_Sfc_RLatLon0.09_PT008H.grib2 2026-04-29 02:41 688K
20260429T00Z_MSC_RDPS_SoilTemp_DBS-0to10cm_RLatLon0.09_PT008H.grib2 2026-04-29 02:41 203K
20260429T00Z_MSC_RDPS_SoilTemp_Sfc_RLatLon0.09_PT008H.grib2 2026-04-29 02:41 266K
20260429T00Z_MSC_RDPS_SoilVolumetricIceContent_Sfc_RLatLon0.09_PT008H.grib2 2026-04-29 02:41 166K
20260429T00Z_MSC_RDPS_SoilVolumetricWaterContent_DBS-0to10cm_RLatLon0.09_PT008H.grib2 2026-04-29 02:41 264K
20260429T00Z_MSC_RDPS_SoilVolumetricWaterContent_DBS-0to1cm_RLatLon0.09_PT008H.grib2 2026-04-29 02:41 330K
20260429T00Z_MSC_RDPS_SpecificHumidity_AGL-120m_RLatLon0.09_PT008H.grib2 2026-04-29 02:41 480K
20260429T00Z_MSC_RDPS_SpecificHumidity_AGL-2m_RLatLon0.09_PT008H.grib2 2026-04-29 02:41 640K
20260429T00Z_MSC_RDPS_SpecificHumidity_AGL-40m_RLatLon0.09_PT008H.grib2 2026-04-29 02:41 483K
20260429T00Z_MSC_RDPS_SpecificHumidity_AGL-80m_RLatLon0.09_PT008H.grib2 2026-04-29 02:41 481K
20260429T00Z_MSC_RDPS_SpecificHumidity_IsbL-0001_RLatLon0.09_PT008H.grib2 2026-04-29 02:41 376K
20260429T00Z_MSC_RDPS_SpecificHumidity_IsbL-0005_RLatLon0.09_PT008H.grib2 2026-04-29 02:41 355K
20260429T00Z_MSC_RDPS_SpecificHumidity_IsbL-0010_RLatLon0.09_PT008H.grib2 2026-04-29 02:41 394K
20260429T00Z_MSC_RDPS_SpecificHumidity_IsbL-0020_RLatLon0.09_PT008H.grib2 2026-04-29 02:41 386K
20260429T00Z_MSC_RDPS_SpecificHumidity_IsbL-0030_RLatLon0.09_PT008H.grib2 2026-04-29 02:41 371K
20260429T00Z_MSC_RDPS_SpecificHumidity_IsbL-0050_RLatLon0.09_PT008H.grib2 2026-04-29 02:41 460K
20260429T00Z_MSC_RDPS_SpecificHumidity_IsbL-0100_RLatLon0.09_PT008H.grib2 2026-04-29 02:41 448K
20260429T00Z_MSC_RDPS_SpecificHumidity_IsbL-0150_RLatLon0.09_PT008H.grib2 2026-04-29 02:41 454K
20260429T00Z_MSC_RDPS_SpecificHumidity_IsbL-0175_RLatLon0.09_PT008H.grib2 2026-04-29 02:41 448K
20260429T00Z_MSC_RDPS_SpecificHumidity_IsbL-0200_RLatLon0.09_PT008H.grib2 2026-04-29 02:41 457K
20260429T00Z_MSC_RDPS_SpecificHumidity_IsbL-0225_RLatLon0.09_PT008H.grib2 2026-04-29 02:41 455K
20260429T00Z_MSC_RDPS_SpecificHumidity_IsbL-0250_RLatLon0.09_PT008H.grib2 2026-04-29 02:41 557K
20260429T00Z_MSC_RDPS_SpecificHumidity_IsbL-0275_RLatLon0.09_PT008H.grib2 2026-04-29 02:41 473K
20260429T00Z_MSC_RDPS_SpecificHumidity_IsbL-0300_RLatLon0.09_PT008H.grib2 2026-04-29 02:41 448K
20260429T00Z_MSC_RDPS_SpecificHumidity_IsbL-0350_RLatLon0.09_PT008H.grib2 2026-04-29 02:41 569K
20260429T00Z_MSC_RDPS_SpecificHumidity_IsbL-0400_RLatLon0.09_PT008H.grib2 2026-04-29 02:41 524K
20260429T00Z_MSC_RDPS_SpecificHumidity_IsbL-0450_RLatLon0.09_PT008H.grib2 2026-04-29 02:41 574K
20260429T00Z_MSC_RDPS_SpecificHumidity_IsbL-0500_RLatLon0.09_PT008H.grib2 2026-04-29 02:41 508K
20260429T00Z_MSC_RDPS_SpecificHumidity_IsbL-0550_RLatLon0.09_PT008H.grib2 2026-04-29 02:41 561K
20260429T00Z_MSC_RDPS_SpecificHumidity_IsbL-0600_RLatLon0.09_PT008H.grib2 2026-04-29 02:41 628K
20260429T00Z_MSC_RDPS_SpecificHumidity_IsbL-0650_RLatLon0.09_PT008H.grib2 2026-04-29 02:41 545K
20260429T00Z_MSC_RDPS_SpecificHumidity_IsbL-0700_RLatLon0.09_PT008H.grib2 2026-04-29 02:41 585K
20260429T00Z_MSC_RDPS_SpecificHumidity_IsbL-0750_RLatLon0.09_PT008H.grib2 2026-04-29 02:41 637K
20260429T00Z_MSC_RDPS_SpecificHumidity_IsbL-0800_RLatLon0.09_PT008H.grib2 2026-04-29 02:41 714K
20260429T00Z_MSC_RDPS_SpecificHumidity_IsbL-0850_RLatLon0.09_PT008H.grib2 2026-04-29 02:41 786K
20260429T00Z_MSC_RDPS_SpecificHumidity_IsbL-0875_RLatLon0.09_PT008H.grib2 2026-04-29 02:41 812K
20260429T00Z_MSC_RDPS_SpecificHumidity_IsbL-0900_RLatLon0.09_PT008H.grib2 2026-04-29 02:41 823K
20260429T00Z_MSC_RDPS_SpecificHumidity_IsbL-0925_RLatLon0.09_PT008H.grib2 2026-04-29 02:41 826K
20260429T00Z_MSC_RDPS_SpecificHumidity_IsbL-0950_RLatLon0.09_PT008H.grib2 2026-04-29 02:41 830K
20260429T00Z_MSC_RDPS_SpecificHumidity_IsbL-0970_RLatLon0.09_PT008H.grib2 2026-04-29 02:41 820K
20260429T00Z_MSC_RDPS_SpecificHumidity_IsbL-0985_RLatLon0.09_PT008H.grib2 2026-04-29 02:41 809K
20260429T00Z_MSC_RDPS_SpecificHumidity_IsbL-1000_RLatLon0.09_PT008H.grib2 2026-04-29 02:41 660K
20260429T00Z_MSC_RDPS_SpecificHumidity_IsbL-1015_RLatLon0.09_PT008H.grib2 2026-04-29 02:41 651K
20260429T00Z_MSC_RDPS_SpecificHumidity_Sfc_RLatLon0.09_PT008H.grib2 2026-04-29 02:41 287K
20260429T00Z_MSC_RDPS_StormRelativeHelicity_EtaL-10000_RLatLon0.09_PT008H.grib2 2026-04-29 02:41 1.1M
20260429T00Z_MSC_RDPS_StormSeverityIndex_EtaL-10000_RLatLon0.09_PT008H.grib2 2026-04-29 02:41 1.1M
20260429T00Z_MSC_RDPS_Thickness_IsbL-0850to0700_RLatLon0.09_PT008H.grib2 2026-04-29 02:41 178K
20260429T00Z_MSC_RDPS_Thickness_IsbL-1000to0500_RLatLon0.09_PT008H.grib2 2026-04-29 02:41 200K
20260429T00Z_MSC_RDPS_Thickness_IsbL-1000to0850_RLatLon0.09_PT008H.grib2 2026-04-29 02:41 260K
20260429T00Z_MSC_RDPS_TotalCloudCover_Sfc_RLatLon0.09_PT008H.grib2 2026-04-29 02:41 652K
20260429T00Z_MSC_RDPS_TotalTotalsIndex_Sfc_RLatLon0.09_PT008H.grib2 2026-04-29 02:41 2.4M
20260429T00Z_MSC_RDPS_UVIndex-ClearSky_Sfc_RLatLon0.09_PT008H.grib2 2026-04-29 02:41 88K
20260429T00Z_MSC_RDPS_UVIndex_Sfc_RLatLon0.09_PT008H.grib2 2026-04-29 02:41 159K
20260429T00Z_MSC_RDPS_UpwardLongwaveRadiationFlux_NTAtm_RLatLon0.09_PT008H.grib2 2026-04-29 02:41 490K
20260429T00Z_MSC_RDPS_UpwardShortwaveRadiationFlux_NTAtm_RLatLon0.09_PT008H.grib2 2026-04-29 02:41 137K
20260429T00Z_MSC_RDPS_VerticalVelocity_IsbL-0250_RLatLon0.09_PT008H.grib2 2026-04-29 02:41 564K
20260429T00Z_MSC_RDPS_VerticalVelocity_IsbL-0500_RLatLon0.09_PT008H.grib2 2026-04-29 02:41 550K
20260429T00Z_MSC_RDPS_VerticalVelocity_IsbL-0700_RLatLon0.09_PT008H.grib2 2026-04-29 02:41 589K
20260429T00Z_MSC_RDPS_VerticalVelocity_IsbL-0850_RLatLon0.09_PT008H.grib2 2026-04-29 02:41 687K
20260429T00Z_MSC_RDPS_VerticalWindShear_EtaL-6500_RLatLon0.09_PT008H.grib2 2026-04-29 02:41 1.2M
20260429T00Z_MSC_RDPS_WindChill_Sfc_RLatLon0.09_PT008H.grib2 2026-04-29 02:41 1.1M
20260429T00Z_MSC_RDPS_WindDir_AGL-10m_RLatLon0.09_PT008H.grib2 2026-04-29 02:41 968K
20260429T00Z_MSC_RDPS_WindDir_AGL-120m_RLatLon0.09_PT008H.grib2 2026-04-29 02:41 606K
20260429T00Z_MSC_RDPS_WindDir_AGL-40m_RLatLon0.09_PT008H.grib2 2026-04-29 02:41 636K
20260429T00Z_MSC_RDPS_WindDir_AGL-80m_RLatLon0.09_PT008H.grib2 2026-04-29 02:41 617K
20260429T00Z_MSC_RDPS_WindDir_IsbL-0001_RLatLon0.09_PT008H.grib2 2026-04-29 02:41 315K
20260429T00Z_MSC_RDPS_WindDir_IsbL-0005_RLatLon0.09_PT008H.grib2 2026-04-29 02:41 351K
20260429T00Z_MSC_RDPS_WindDir_IsbL-0010_RLatLon0.09_PT008H.grib2 2026-04-29 02:41 374K
20260429T00Z_MSC_RDPS_WindDir_IsbL-0020_RLatLon0.09_PT008H.grib2 2026-04-29 02:41 394K
20260429T00Z_MSC_RDPS_WindDir_IsbL-0030_RLatLon0.09_PT008H.grib2 2026-04-29 02:41 405K
20260429T00Z_MSC_RDPS_WindDir_IsbL-0050_RLatLon0.09_PT008H.grib2 2026-04-29 02:41 418K
20260429T00Z_MSC_RDPS_WindDir_IsbL-0100_RLatLon0.09_PT008H.grib2 2026-04-29 02:41 419K
20260429T00Z_MSC_RDPS_WindDir_IsbL-0150_RLatLon0.09_PT008H.grib2 2026-04-29 02:41 426K
20260429T00Z_MSC_RDPS_WindDir_IsbL-0175_RLatLon0.09_PT008H.grib2 2026-04-29 02:41 439K
20260429T00Z_MSC_RDPS_WindDir_IsbL-0200_RLatLon0.09_PT008H.grib2 2026-04-29 02:41 449K
20260429T00Z_MSC_RDPS_WindDir_IsbL-0225_RLatLon0.09_PT008H.grib2 2026-04-29 02:41 452K
20260429T00Z_MSC_RDPS_WindDir_IsbL-0250_RLatLon0.09_PT008H.grib2 2026-04-29 02:41 454K
20260429T00Z_MSC_RDPS_WindDir_IsbL-0275_RLatLon0.09_PT008H.grib2 2026-04-29 02:41 478K
20260429T00Z_MSC_RDPS_WindDir_IsbL-0300_RLatLon0.09_PT008H.grib2 2026-04-29 02:41 479K
20260429T00Z_MSC_RDPS_WindDir_IsbL-0350_RLatLon0.09_PT008H.grib2 2026-04-29 02:41 500K
20260429T00Z_MSC_RDPS_WindDir_IsbL-0400_RLatLon0.09_PT008H.grib2 2026-04-29 02:41 524K
20260429T00Z_MSC_RDPS_WindDir_IsbL-0450_RLatLon0.09_PT008H.grib2 2026-04-29 02:41 542K
20260429T00Z_MSC_RDPS_WindDir_IsbL-0500_RLatLon0.09_PT008H.grib2 2026-04-29 02:41 551K
20260429T00Z_MSC_RDPS_WindDir_IsbL-0550_RLatLon0.09_PT008H.grib2 2026-04-29 02:41 565K
20260429T00Z_MSC_RDPS_WindDir_IsbL-0600_RLatLon0.09_PT008H.grib2 2026-04-29 02:41 591K
20260429T00Z_MSC_RDPS_WindDir_IsbL-0650_RLatLon0.09_PT008H.grib2 2026-04-29 02:41 631K
20260429T00Z_MSC_RDPS_WindDir_IsbL-0700_RLatLon0.09_PT008H.grib2 2026-04-29 02:41 674K
20260429T00Z_MSC_RDPS_WindDir_IsbL-0750_RLatLon0.09_PT008H.grib2 2026-04-29 02:41 720K
20260429T00Z_MSC_RDPS_WindDir_IsbL-0800_RLatLon0.09_PT008H.grib2 2026-04-29 02:41 781K
20260429T00Z_MSC_RDPS_WindDir_IsbL-0850_RLatLon0.09_PT008H.grib2 2026-04-29 02:41 854K
20260429T00Z_MSC_RDPS_WindDir_IsbL-0875_RLatLon0.09_PT008H.grib2 2026-04-29 02:41 877K
20260429T00Z_MSC_RDPS_WindDir_IsbL-0900_RLatLon0.09_PT008H.grib2 2026-04-29 02:41 894K
20260429T00Z_MSC_RDPS_WindDir_IsbL-0925_RLatLon0.09_PT008H.grib2 2026-04-29 02:41 905K
20260429T00Z_MSC_RDPS_WindDir_IsbL-0950_RLatLon0.09_PT008H.grib2 2026-04-29 02:41 910K
20260429T00Z_MSC_RDPS_WindDir_IsbL-0970_RLatLon0.09_PT008H.grib2 2026-04-29 02:41 920K
20260429T00Z_MSC_RDPS_WindDir_IsbL-0985_RLatLon0.09_PT008H.grib2 2026-04-29 02:41 928K
20260429T00Z_MSC_RDPS_WindDir_IsbL-1000_RLatLon0.09_PT008H.grib2 2026-04-29 02:41 942K
20260429T00Z_MSC_RDPS_WindDir_IsbL-1015_RLatLon0.09_PT008H.grib2 2026-04-29 02:41 960K
20260429T00Z_MSC_RDPS_WindGust-Max_AGL-10m_RLatLon0.09_PT008H.grib2 2026-04-29 02:41 945K
20260429T00Z_MSC_RDPS_WindGust-Min_AGL-10m_RLatLon0.09_PT008H.grib2 2026-04-29 02:41 971K
20260429T00Z_MSC_RDPS_WindGust_AGL-10m_RLatLon0.09_PT008H.grib2 2026-04-29 02:41 1.0M
20260429T00Z_MSC_RDPS_WindSpeed_AGL-10m_RLatLon0.09_PT008H.grib2 2026-04-29 02:41 835K
20260429T00Z_MSC_RDPS_WindSpeed_AGL-120m_RLatLon0.09_PT008H.grib2 2026-04-29 02:41 549K
20260429T00Z_MSC_RDPS_WindSpeed_AGL-40m_RLatLon0.09_PT008H.grib2 2026-04-29 02:41 551K
20260429T00Z_MSC_RDPS_WindSpeed_AGL-80m_RLatLon0.09_PT008H.grib2 2026-04-29 02:41 550K
20260429T00Z_MSC_RDPS_WindSpeed_IsbL-0001_RLatLon0.09_PT008H.grib2 2026-04-29 02:41 329K
20260429T00Z_MSC_RDPS_WindSpeed_IsbL-0005_RLatLon0.09_PT008H.grib2 2026-04-29 02:41 381K
20260429T00Z_MSC_RDPS_WindSpeed_IsbL-0010_RLatLon0.09_PT008H.grib2 2026-04-29 02:41 303K
20260429T00Z_MSC_RDPS_WindSpeed_IsbL-0020_RLatLon0.09_PT008H.grib2 2026-04-29 02:41 316K
20260429T00Z_MSC_RDPS_WindSpeed_IsbL-0030_RLatLon0.09_PT008H.grib2 2026-04-29 02:41 315K
20260429T00Z_MSC_RDPS_WindSpeed_IsbL-0050_RLatLon0.09_PT008H.grib2 2026-04-29 02:41 347K
20260429T00Z_MSC_RDPS_WindSpeed_IsbL-0100_RLatLon0.09_PT008H.grib2 2026-04-29 02:41 483K
20260429T00Z_MSC_RDPS_WindSpeed_IsbL-0150_RLatLon0.09_PT008H.grib2 2026-04-29 02:41 391K
20260429T00Z_MSC_RDPS_WindSpeed_IsbL-0175_RLatLon0.09_PT008H.grib2 2026-04-29 02:41 439K
20260429T00Z_MSC_RDPS_WindSpeed_IsbL-0200_RLatLon0.09_PT008H.grib2 2026-04-29 02:41 457K
20260429T00Z_MSC_RDPS_WindSpeed_IsbL-0225_RLatLon0.09_PT008H.grib2 2026-04-29 02:41 462K
20260429T00Z_MSC_RDPS_WindSpeed_IsbL-0250_RLatLon0.09_PT008H.grib2 2026-04-29 02:41 467K
20260429T00Z_MSC_RDPS_WindSpeed_IsbL-0275_RLatLon0.09_PT008H.grib2 2026-04-29 02:41 485K
20260429T00Z_MSC_RDPS_WindSpeed_IsbL-0300_RLatLon0.09_PT008H.grib2 2026-04-29 02:41 482K
20260429T00Z_MSC_RDPS_WindSpeed_IsbL-0350_RLatLon0.09_PT008H.grib2 2026-04-29 02:41 492K
20260429T00Z_MSC_RDPS_WindSpeed_IsbL-0400_RLatLon0.09_PT008H.grib2 2026-04-29 02:41 473K
20260429T00Z_MSC_RDPS_WindSpeed_IsbL-0450_RLatLon0.09_PT008H.grib2 2026-04-29 02:41 471K
20260429T00Z_MSC_RDPS_WindSpeed_IsbL-0500_RLatLon0.09_PT008H.grib2 2026-04-29 02:41 470K
20260429T00Z_MSC_RDPS_WindSpeed_IsbL-0550_RLatLon0.09_PT008H.grib2 2026-04-29 02:41 469K
20260429T00Z_MSC_RDPS_WindSpeed_IsbL-0600_RLatLon0.09_PT008H.grib2 2026-04-29 02:41 593K
20260429T00Z_MSC_RDPS_WindSpeed_IsbL-0650_RLatLon0.09_PT008H.grib2 2026-04-29 02:41 611K
20260429T00Z_MSC_RDPS_WindSpeed_IsbL-0700_RLatLon0.09_PT008H.grib2 2026-04-29 02:41 633K
20260429T00Z_MSC_RDPS_WindSpeed_IsbL-0750_RLatLon0.09_PT008H.grib2 2026-04-29 02:41 660K
20260429T00Z_MSC_RDPS_WindSpeed_IsbL-0800_RLatLon0.09_PT008H.grib2 2026-04-29 02:41 705K
20260429T00Z_MSC_RDPS_WindSpeed_IsbL-0850_RLatLon0.09_PT008H.grib2 2026-04-29 02:41 763K
20260429T00Z_MSC_RDPS_WindSpeed_IsbL-0875_RLatLon0.09_PT008H.grib2 2026-04-29 02:41 783K
20260429T00Z_MSC_RDPS_WindSpeed_IsbL-0900_RLatLon0.09_PT008H.grib2 2026-04-29 02:41 843K
20260429T00Z_MSC_RDPS_WindSpeed_IsbL-0925_RLatLon0.09_PT008H.grib2 2026-04-29 02:41 855K
20260429T00Z_MSC_RDPS_WindSpeed_IsbL-0950_RLatLon0.09_PT008H.grib2 2026-04-29 02:41 856K
20260429T00Z_MSC_RDPS_WindSpeed_IsbL-0970_RLatLon0.09_PT008H.grib2 2026-04-29 02:41 858K
20260429T00Z_MSC_RDPS_WindSpeed_IsbL-0985_RLatLon0.09_PT008H.grib2 2026-04-29 02:41 849K
20260429T00Z_MSC_RDPS_WindSpeed_IsbL-1000_RLatLon0.09_PT008H.grib2 2026-04-29 02:41 843K
20260429T00Z_MSC_RDPS_WindSpeed_IsbL-1015_RLatLon0.09_PT008H.grib2 2026-04-29 02:41 834K
20260429T00Z_MSC_RDPS_WindU_AGL-10m_RLatLon0.09_PT008H.grib2 2026-04-29 02:41 378K
20260429T00Z_MSC_RDPS_WindU_AGL-120m_RLatLon0.09_PT008H.grib2 2026-04-29 02:41 417K
20260429T00Z_MSC_RDPS_WindU_AGL-40m_RLatLon0.09_PT008H.grib2 2026-04-29 02:41 419K
20260429T00Z_MSC_RDPS_WindU_AGL-80m_RLatLon0.09_PT008H.grib2 2026-04-29 02:41 418K
20260429T00Z_MSC_RDPS_WindU_IsbL-0001_RLatLon0.09_PT008H.grib2 2026-04-29 02:41 291K
20260429T00Z_MSC_RDPS_WindU_IsbL-0005_RLatLon0.09_PT008H.grib2 2026-04-29 02:41 284K
20260429T00Z_MSC_RDPS_WindU_IsbL-0010_RLatLon0.09_PT008H.grib2 2026-04-29 02:41 335K
20260429T00Z_MSC_RDPS_WindU_IsbL-0020_RLatLon0.09_PT008H.grib2 2026-04-29 02:41 347K
20260429T00Z_MSC_RDPS_WindU_IsbL-0030_RLatLon0.09_PT008H.grib2 2026-04-29 02:41 346K
20260429T00Z_MSC_RDPS_WindU_IsbL-0050_RLatLon0.09_PT008H.grib2 2026-04-29 02:41 339K
20260429T00Z_MSC_RDPS_WindU_IsbL-0100_RLatLon0.09_PT008H.grib2 2026-04-29 02:41 342K
20260429T00Z_MSC_RDPS_WindU_IsbL-0150_RLatLon0.09_PT008H.grib2 2026-04-29 02:41 407K
20260429T00Z_MSC_RDPS_WindU_IsbL-0175_RLatLon0.09_PT008H.grib2 2026-04-29 02:41 431K
20260429T00Z_MSC_RDPS_WindU_IsbL-0200_RLatLon0.09_PT008H.grib2 2026-04-29 02:41 347K
20260429T00Z_MSC_RDPS_WindU_IsbL-0225_RLatLon0.09_PT008H.grib2 2026-04-29 02:41 351K
20260429T00Z_MSC_RDPS_WindU_IsbL-0250_RLatLon0.09_PT008H.grib2 2026-04-29 02:41 354K
20260429T00Z_MSC_RDPS_WindU_IsbL-0275_RLatLon0.09_PT008H.grib2 2026-04-29 02:41 368K
20260429T00Z_MSC_RDPS_WindU_IsbL-0300_RLatLon0.09_PT008H.grib2 2026-04-29 02:41 467K
20260429T00Z_MSC_RDPS_WindU_IsbL-0350_RLatLon0.09_PT008H.grib2 2026-04-29 02:41 478K
20260429T00Z_MSC_RDPS_WindU_IsbL-0400_RLatLon0.09_PT008H.grib2 2026-04-29 02:41 477K
20260429T00Z_MSC_RDPS_WindU_IsbL-0450_RLatLon0.09_PT008H.grib2 2026-04-29 02:41 475K
20260429T00Z_MSC_RDPS_WindU_IsbL-0500_RLatLon0.09_PT008H.grib2 2026-04-29 02:41 474K
20260429T00Z_MSC_RDPS_WindU_IsbL-0550_RLatLon0.09_PT008H.grib2 2026-04-29 02:41 473K
20260429T00Z_MSC_RDPS_WindU_IsbL-0600_RLatLon0.09_PT008H.grib2 2026-04-29 02:41 463K
20260429T00Z_MSC_RDPS_WindU_IsbL-0650_RLatLon0.09_PT008H.grib2 2026-04-29 02:41 480K
20260429T00Z_MSC_RDPS_WindU_IsbL-0700_RLatLon0.09_PT008H.grib2 2026-04-29 02:41 500K
20260429T00Z_MSC_RDPS_WindU_IsbL-0750_RLatLon0.09_PT008H.grib2 2026-04-29 02:41 526K
20260429T00Z_MSC_RDPS_WindU_IsbL-0800_RLatLon0.09_PT008H.grib2 2026-04-29 02:41 566K
20260429T00Z_MSC_RDPS_WindU_IsbL-0850_RLatLon0.09_PT008H.grib2 2026-04-29 02:41 628K
20260429T00Z_MSC_RDPS_WindU_IsbL-0875_RLatLon0.09_PT008H.grib2 2026-04-29 02:41 636K
20260429T00Z_MSC_RDPS_WindU_IsbL-0900_RLatLon0.09_PT008H.grib2 2026-04-29 02:41 646K
20260429T00Z_MSC_RDPS_WindU_IsbL-0925_RLatLon0.09_PT008H.grib2 2026-04-29 02:41 652K
20260429T00Z_MSC_RDPS_WindU_IsbL-0950_RLatLon0.09_PT008H.grib2 2026-04-29 02:41 649K
20260429T00Z_MSC_RDPS_WindU_IsbL-0970_RLatLon0.09_PT008H.grib2 2026-04-29 02:41 649K
20260429T00Z_MSC_RDPS_WindU_IsbL-0985_RLatLon0.09_PT008H.grib2 2026-04-29 02:41 644K
20260429T00Z_MSC_RDPS_WindU_IsbL-1000_RLatLon0.09_PT008H.grib2 2026-04-29 02:41 640K
20260429T00Z_MSC_RDPS_WindU_IsbL-1015_RLatLon0.09_PT008H.grib2 2026-04-29 02:41 634K
20260429T00Z_MSC_RDPS_WindV_AGL-10m_RLatLon0.09_PT008H.grib2 2026-04-29 02:41 430K
20260429T00Z_MSC_RDPS_WindV_AGL-120m_RLatLon0.09_PT008H.grib2 2026-04-29 02:41 533K
20260429T00Z_MSC_RDPS_WindV_AGL-40m_RLatLon0.09_PT008H.grib2 2026-04-29 02:41 535K
20260429T00Z_MSC_RDPS_WindV_AGL-80m_RLatLon0.09_PT008H.grib2 2026-04-29 02:41 534K
20260429T00Z_MSC_RDPS_WindV_IsbL-0001_RLatLon0.09_PT008H.grib2 2026-04-29 02:41 242K
20260429T00Z_MSC_RDPS_WindV_IsbL-0005_RLatLon0.09_PT008H.grib2 2026-04-29 02:41 283K
20260429T00Z_MSC_RDPS_WindV_IsbL-0010_RLatLon0.09_PT008H.grib2 2026-04-29 02:41 293K
20260429T00Z_MSC_RDPS_WindV_IsbL-0020_RLatLon0.09_PT008H.grib2 2026-04-29 02:41 348K
20260429T00Z_MSC_RDPS_WindV_IsbL-0030_RLatLon0.09_PT008H.grib2 2026-04-29 02:41 308K
20260429T00Z_MSC_RDPS_WindV_IsbL-0050_RLatLon0.09_PT008H.grib2 2026-04-29 02:41 339K
20260429T00Z_MSC_RDPS_WindV_IsbL-0100_RLatLon0.09_PT008H.grib2 2026-04-29 02:41 336K
20260429T00Z_MSC_RDPS_WindV_IsbL-0150_RLatLon0.09_PT008H.grib2 2026-04-29 02:41 404K
20260429T00Z_MSC_RDPS_WindV_IsbL-0175_RLatLon0.09_PT008H.grib2 2026-04-29 02:41 333K
20260429T00Z_MSC_RDPS_WindV_IsbL-0200_RLatLon0.09_PT008H.grib2 2026-04-29 02:41 348K
20260429T00Z_MSC_RDPS_WindV_IsbL-0225_RLatLon0.09_PT008H.grib2 2026-04-29 02:41 351K
20260429T00Z_MSC_RDPS_WindV_IsbL-0250_RLatLon0.09_PT008H.grib2 2026-04-29 02:41 378K
20260429T00Z_MSC_RDPS_WindV_IsbL-0275_RLatLon0.09_PT008H.grib2 2026-04-29 02:41 390K
20260429T00Z_MSC_RDPS_WindV_IsbL-0300_RLatLon0.09_PT008H.grib2 2026-04-29 02:41 388K
20260429T00Z_MSC_RDPS_WindV_IsbL-0350_RLatLon0.09_PT008H.grib2 2026-04-29 02:41 372K
20260429T00Z_MSC_RDPS_WindV_IsbL-0400_RLatLon0.09_PT008H.grib2 2026-04-29 02:41 373K
20260429T00Z_MSC_RDPS_WindV_IsbL-0450_RLatLon0.09_PT008H.grib2 2026-04-29 02:41 372K
20260429T00Z_MSC_RDPS_WindV_IsbL-0500_RLatLon0.09_PT008H.grib2 2026-04-29 02:41 474K
20260429T00Z_MSC_RDPS_WindV_IsbL-0550_RLatLon0.09_PT008H.grib2 2026-04-29 02:41 473K
20260429T00Z_MSC_RDPS_WindV_IsbL-0600_RLatLon0.09_PT008H.grib2 2026-04-29 02:41 479K
20260429T00Z_MSC_RDPS_WindV_IsbL-0650_RLatLon0.09_PT008H.grib2 2026-04-29 02:41 496K
20260429T00Z_MSC_RDPS_WindV_IsbL-0700_RLatLon0.09_PT008H.grib2 2026-04-29 02:41 513K
20260429T00Z_MSC_RDPS_WindV_IsbL-0750_RLatLon0.09_PT008H.grib2 2026-04-29 02:41 537K
20260429T00Z_MSC_RDPS_WindV_IsbL-0800_RLatLon0.09_PT008H.grib2 2026-04-29 02:41 574K
20260429T00Z_MSC_RDPS_WindV_IsbL-0850_RLatLon0.09_PT008H.grib2 2026-04-29 02:41 625K
20260429T00Z_MSC_RDPS_WindV_IsbL-0875_RLatLon0.09_PT008H.grib2 2026-04-29 02:41 641K
20260429T00Z_MSC_RDPS_WindV_IsbL-0900_RLatLon0.09_PT008H.grib2 2026-04-29 02:41 643K
20260429T00Z_MSC_RDPS_WindV_IsbL-0925_RLatLon0.09_PT008H.grib2 2026-04-29 02:41 652K
20260429T00Z_MSC_RDPS_WindV_IsbL-0950_RLatLon0.09_PT008H.grib2 2026-04-29 02:41 652K
20260429T00Z_MSC_RDPS_WindV_IsbL-0970_RLatLon0.09_PT008H.grib2 2026-04-29 02:41 654K
20260429T00Z_MSC_RDPS_WindV_IsbL-0985_RLatLon0.09_PT008H.grib2 2026-04-29 02:41 786K
20260429T00Z_MSC_RDPS_WindV_IsbL-1000_RLatLon0.09_PT008H.grib2 2026-04-29 02:41 780K
20260429T00Z_MSC_RDPS_WindV_IsbL-1015_RLatLon0.09_PT008H.grib2 2026-04-29 02:41 819K